Home > Weather > Bern > Past weeks

Flag for Switzerland Past Weather in Bern, Bern, Switzerland — Yesterday and Last 2 Weeks

Now
64 °F

Broken clouds.


Feels Like: 64 °F
Forecast: 50 / 72 °F
Wind: 5 mph from West

Location: Bern / Belp

Current Time: Jul 2, 2016 at 11:40:35 AM

Latest Report: Jul 2, 2016 at 11:20 AM


Visibility: N/A

Pressure: 30.09 "Hg (28.27 "Hg at 533m altitude)

Humidity: 88%

Dew Point: 61 °F

Location of BernLocation

Past Weather in Bern — Graph

°F

Bern Temperature Yesterday

Maximum temperature yesterday: 82 °F (at 5:50 PM)
Minimum temperature yesterday: 59 °F (at 2:20 AM)
Average temperature yesterday: 69 °F

High & Low Weather Summary for the Past Weeks

 TemperatureHumidityPressure
High91 °F (Jun 23, 5:20 PM)100% (Jun 18, 4:50 AM)30.27 "Hg (Jun 18, 4:50 AM)
Low48 °F (Jun 18, 5:50 AM)31% (Jun 24, 3:20 PM)29.89 "Hg (Jun 17, 10:20 AM)
Average66 °F79%30.11 "Hg
* Reported Jun 17 10:20 AM — Jul 2 10:20 AM, Bern, Weather by CustomWeather, © 2016

Note: Actual official high and low records may vary slightly from our data, if they occured in-between our weather recording intervals... More about our weather records

Advertising

Bern Weather History for the Previous 24 Hours

Scroll right to see more
 ConditionsComfort  
Time TempWeatherWind HumidityBarometerVisibility
10:20 AM
Sat, Jul 2
63 °FSprinkles. Scattered clouds.2 mph94%30.07 "Hg6 mi
9:50 AM63 °FSprinkles. Broken clouds.2 mph94%30.07 "Hg6 mi
9:20 AM63 °FSprinkles. Partly sunny.2 mph94%30.07 "HgN/A
8:50 AM63 °FSprinkles. Broken clouds.5 mph94%30.07 "HgN/A
8:20 AM63 °FPartly sunny.5 mph94%30.07 "HgN/A
7:50 AM63 °FRain. Partly sunny.3 mph94%30.07 "Hg5 mi
7:20 AM63 °FRain showers. Broken clouds.5 mph88%30.07 "HgN/A
6:50 AM63 °FRain showers. Broken clouds.3 mph94%30.04 "HgN/A
6:20 AM63 °FThundershowers. Partly cloudy.6 mph94%30.04 "HgN/A
5:50 AM63 °FPartly cloudy.5 mph94%30.04 "HgN/A
5:20 AM63 °FSprinkles. Partly cloudy.2 mph94%30.04 "HgN/A
4:50 AM63 °FThundershowers. Overcast.5 mph94%30.04 "HgN/A
4:20 AM63 °FPassing clouds.6 mph94%30.04 "HgN/A
3:50 AM64 °FLight rain. Passing clouds.3 mph88%30.04 "HgN/A
3:20 AM66 °FRain. Passing clouds.9 mph78%30.04 "HgN/A
2:50 AM64 °FRain. Partly cloudy.9 mph83%30.04 "HgN/A
2:20 AM61 °FThundershowers. Passing clouds.1 mph94%30.01 "HgN/A
1:50 AM61 °FPassing clouds.1 mph94%30.01 "HgN/A
1:20 AM63 °FPassing clouds.1 mph88%30.01 "HgN/A
12:50 AM63 °FPassing clouds.1 mph94%30.04 "HgN/A
12:20 AM63 °FPassing clouds.1 mph94%30.04 "HgN/A
11:50 PM
Fri, Jul 1
63 °FPassing clouds.3 mph94%30.04 "HgN/A
11:20 PM64 °FClear.5 mph83%30.04 "Hg10 mi
10:50 PM64 °FClear.1 mph83%30.04 "Hg10 mi
10:20 PM64 °FSunny.1 mph88%30.04 "Hg10 mi
9:50 PM68 °FSunny.2 mph83%30.04 "Hg10 mi
9:20 PM73 °FSunny.3 mph61%30.01 "Hg10 mi
8:50 PM77 °FSunny.2 mph61%30.01 "Hg10 mi
8:20 PM79 °FPassing clouds.5 mph58%30.01 "HgN/A
7:50 PM79 °FPassing clouds.7 mph58%30.01 "HgN/A
7:20 PM81 °FPassing clouds.8 mph54%30.01 "HgN/A
6:50 PM81 °FPassing clouds.9 mph51%30.01 "HgN/A
6:20 PM81 °FPassing clouds.9 mph48%30.01 "HgN/A
5:50 PM82 °FScattered clouds.8 mph48%30.01 "HgN/A
5:20 PM81 °FScattered clouds.8 mph58%30.01 "HgN/A
4:50 PM81 °FScattered clouds.3 mph58%30.04 "HgN/A
4:20 PM79 °FScattered clouds.7 mph58%30.04 "HgN/A
3:50 PM81 °FScattered clouds.7 mph54%30.04 "HgN/A
3:20 PM79 °FScattered clouds.3 mph54%30.04 "HgN/A
2:50 PM77 °FScattered clouds.3 mph61%30.07 "HgN/A
2:20 PM77 °FScattered clouds.5 mph57%30.07 "HgN/A
1:50 PM77 °FScattered clouds.6 mph61%30.07 "HgN/A
1:20 PM75 °FScattered clouds.8 mph61%30.07 "HgN/A
12:50 PM75 °FPassing clouds.5 mph65%30.09 "HgN/A
12:20 PM75 °FScattered clouds.3 mph61%30.09 "HgN/A
11:50 AM73 °FPassing clouds.2 mph61%30.09 "HgN/A
11:20 AM72 °FScattered clouds.7 mph65%30.09 "HgN/A
Weather by CustomWeather, © 2016

See weather overviewHow to use our weather pages